Skip to main content Skip to accessibility
This website is not compatible with your web browser. You should install a newer browser. If you live in Jersey and need help upgrading call the States of Jersey web team on 440099.
Homegov.je

L'înformâtion et les sèrvices publyis pouor I'Île dé Jèrri

  • Choose the service you want to log in to:

  • gov.je

    Update your notification preferences

  • one.gov.je

    Access government and parish services

  • CAESAR

    Clear goods through customs or claim relief

  • Talentlink

    View or update your States of Jersey job application

CI Airfield TAFs

JERSEY - EGJJ

EGJJ 221057Z 2212/2221 31016KT 9999 SCT025 PROB30 TEMPO 2212/2221 27020G32KT 8000 SHRA BKN018CB PROB40 TEMPO 2212/2215 5000 SHRAGS BKN015CB=

GUERNSEY - EGJB

EGJB 221057Z 2212/2221 31016KT 9999 SCT025 PROB30 TEMPO 2212/2221 27020G32KT 8000 SHRA BKN018CB PROB40 TEMPO 2212/2214 5000 SHRAGS BKN015CB=

ALDERNEY - EGJA

EGJA 221057Z 2212/2219 31018KT 9999 SCT025 PROB30 TEMPO 2212/2219 27022G35KT 8000 SHRA BKN018CB PROB40 TEMPO 2212/2215 5000 SHRAGS BKN015CB=

Back to top
rating button